[Iaude] MPEC D50: 2024 DH [a=1.67,e=0.52,i=21.5,H=26.1]
    mpec at cfa.harvard.edu 
    mpec at cfa.harvard.edu
       
    Sun Feb 18 10:01:58 EST 2024
    
    
  
M.P.E.C. 2024-D50                             Issued 2024 February 18, 15:00 UT
     The Minor Planet Electronic Circulars contain information on unusual
         minor planets, routine data on comets and natural satellites,
         and occasional editorial announcements.  They are published
    on behalf of Division F of the International Astronomical Union by the
          Minor Planet Center, Smithsonian Astrophysical Observatory,
                          Cambridge, MA 02138, U.S.A.
			  
             Prepared using the Tamkin Foundation Computer Network
                              MPC at CFA.HARVARD.EDU
            URL https://www.minorplanetcenter.net/    ISSN 1523-6714
                                    2024 DH                                     
Observations:
     K24D00H*1C2024 02 17.18317008 51 22.036+45 12 52.20         20.27GVED050G96
     K24D00H 1C2024 02 17.18881108 51 31.230+45 13 52.39         20.82GVED050G96
     K24D00H 1C2024 02 17.19447008 51 40.547+45 14 53.59         20.28GVED050G96
     K24D00H 1C2024 02 17.20011808 51 49.820+45 15 53.32         20.20GVED050G96
     K24D00H  C2024 02 17.26133208 53 27.144+45 26 15.73         20.4 GVED050H01
     K24D00H  C2024 02 17.26521608 53 33.312+45 26 53.94         20.3 GVED050H01
     K24D00H KC2024 02 17.26685408 53 36.942+45 27 15.30         20.60GVED050I52
     K24D00H KC2024 02 17.26980508 53 41.568+45 27 44.46         20.50GVED050I52
     K24D00H KC2024 02 17.27275008 53 46.244+45 28 13.30         20.67GVED050I52
     K24D00H  C2024 02 17.27437408 53 47.822+45 28 23.78         20.7 GVED050H01
     K24D00H KC2024 02 17.27569708 53 50.910+45 28 42.02         20.33GVED050I52
     K24D00H  C2024 02 17.28209208 54 00.039+45 29 38.66         20.4 GVED050H01
     K24D00H KC2024 02 18.01710 09 12 15.98 +47 06 36.4          20.8 GVED050204
     K24D00H HC2024 02 18.03667 09 12 40.71 +47 08 37.5                VED050204
     K24D00H KC2024 02 18.14108809 15 08.91 +47 19 47.6          21.3 GVED050H21
     K24D00H KC2024 02 18.14388409 15 12.32 +47 20 05.6          21.4 GVED050H21
     K24D00H KC2024 02 18.14551209 15 19.267+47 20 08.88         21.03GVED050I52
     K24D00H KC2024 02 18.14667909 15 15.70 +47 20 23.1          21.7 GVED050H21
     K24D00H KC2024 02 18.14876609 15 23.123+47 20 29.94         20.23GVED050I52
     K24D00H KC2024 02 18.14956809 15 19.17 +47 20 41.1          22.1 GVED050H21
Observer details:
204 Schiaparelli Observatory.  Observers L. Buzzi, G. Galli.  0.84-m f/3.5
    reflector + CMO.
G96 Mt. Lemmon Survey.  Observers T. Beuden, J. K. Hogan.  Measurers T.
    Beuden, V. F. Carvajal, D. Fay, J. B. Fazekas, D. C. Fuls, A. R. Gibbs, A.
    D. Grauer, H. Groeller, J. K. Hogan, R. A. Kowalski, S. M. Larson, G. J.
    Leonard, D. Rankin, R. L. Seaman, F. C. Shelly, K. W. Wierzchos.  1.5-m
    reflector + 10K CCD.
H01 Magdalena Ridge Observatory, Socorro.  Observers W. H. Ryan, E. V. Ryan.
    Measurer W. H. Ryan.  2.4-m f/8.9 Ritchey-Chretien + CCD.
H21 Astronomical Research Observatory, Westfield.  Observer R. Holmes.
    Measurers T. Linder, R. Holmes, L. Horn.  0.76-m f/3.0 astrograph + CCD.
I52 Steward Observatory, Mt. Lemmon Station.  Observer J. B. Fazekas.
    Measurers E. C. Beshore, D. Fay, J. B. Fazekas, D. C. Fuls, A. R. Gibbs,
    A. D. Grauer, H. Groeller, J. K. Hogan, R. A. Kowalski, S. M. Larson, G.
    J. Leonard, D. Rankin, R. L. Seaman, F. C. Shelly, K. W. Wierzchos.  1.0-m
    prime focus + CCD.
Orbital elements:
2024 DH                                                  Earth MOID = 0.0110 AU
Epoch 2024 Mar. 31.0 TT = JDT 2460400.5                 Bell                    
M  41.41216              (2000.0)            P               Q                  
n   0.45650745     Peri.  294.99433     +0.15313799     -0.96443556             
a   1.6704653      Node   144.03839     +0.98605822     +0.13476834             
e   0.5180464      Incl.   21.52213     +0.06509942     +0.22737973             
P   2.16           H   26.18          G   0.15           U   8                  
Residuals in seconds of arc
240217 G96  0.1-  0.1-    240217 I52  0.2-  0.0     240218 H21  0.2-  0.0
240217 G96  0.7-  0.4-    240217 I52  0.1-  0.1-    240218 H21  0.1+  0.3+
240217 G96  0.1-  0.4+    240217 H01  0.0   0.1+    240218 I52  0.7+  0.2-
240217 G96  0.5+  0.3+    240217 I52  0.0   0.3-    240218 H21  0.2+  0.1+
240217 H01  0.1+  0.1+    240217 H01  0.1+  0.1+    240218 I52  0.5-  0.4-
240217 H01  0.1+  0.0     240218 204  0.8-  0.6-    240218 H21  0.0   0.0
240217 I52  0.3+  0.1-    240218 204  0.4-  0.5-
Ephemeris:
2024 DH                  a,e,i = 1.67, 0.52, 22                  q = 0.8051
Date    TT    R. A. (2000) Decl.     Delta      r    Elong.  Phase     V
2024 01 19    23 30 17.0 -50 57 39   0.2583  0.8446    50.8   115.5    27.4
...
2024 02 03    00 22 07.8 -51 24 48   0.1067  0.9241    52.3   122.5    26.2
...
2024 02 11    02 47 59.0 -39 45 51   0.03029 0.9779    71.9   106.4    22.5
...
2024 02 17    08 45 45.1 +44 38 51   0.04106 1.0215   144.1    34.5    20.7
2024 02 18    09 11 57.0 +47 04 45   0.05037 1.0290   143.3    35.0    21.2
2024 02 19    09 31 14.0 +48 29 35   0.05998 1.0365   142.4    35.5    21.6
...
2024 02 25    10 24 28.2 +50 46 09   0.1200  1.0827   138.7    37.1    23.2
...
2024 03 04    10 46 24.5 +50 27 39   0.2028  1.1460   135.9    37.0    24.5
...
2024 03 19    11 00 56.0 +47 58 46   0.3657  1.2667   131.2    36.3    26.0
M. P. C. Staff               (C) Copyright 2024 MPC           M.P.E.C. 2024-D50
    
    
More information about the Iaude
mailing list